This is the latest recevied weather packets stored in our database for station/object N2MLB-WX. If no packets are shown the sender has not sent any weather packets the latest 10 day(s).
| Time | Temp. | Humidity | Pressure | Rain* | Wind** | Luminosity | Snow |
|---|---|---|---|---|---|---|---|
| 1777808842 | 4.44° C | 79% | 1010 hPa | 0 mm | - | 10 W/m² | - |
| 1777808540 | 5° C | 77% | 1010 hPa | 0 mm | - | 12 W/m² | - |
| 1777808243 | 4.44° C | 79% | 1010 hPa | 0 mm | - | 17 W/m² | - |
| 1777807939 | 3.89° C | 82% | 1010 hPa | 0 mm | - | 15 W/m² | - |
| 1777807639 | 3.89° C | 82% | 1010 hPa | 0 mm | - | 13 W/m² | - |
| 1777807342 | 3.33° C | 83% | 1010 hPa | 0 mm | - | 10 W/m² | - |
| 1777807040 | 3.33° C | 83% | 1010 hPa | 0 mm | - | 8 W/m² | - |
| 1777806740 | 3.89° C | 83% | 1010 hPa | 0 mm | - | 7 W/m² | - |
| 1777806445 | 3.89° C | 83% | 1010 hPa | 0 mm | - | 8 W/m² | - |
| 1777806141 | 3.33° C | 84% | 1010 hPa | 0 mm | - | 7 W/m² | - |
| 1777805841 | 2.78° C | 85% | 1009 hPa | 0 mm | - | 9 W/m² | - |
| 1777805539 | 2.78° C | 86% | 1009 hPa | 0 mm | - | 8 W/m² | - |
| 1777805240 | 2.78° C | 87% | 1009 hPa | 0 mm | - | 5 W/m² | - |
| 1777804940 | 2.78° C | 87% | 1009 hPa | 0 mm | - | 4 W/m² | - |
| 1777804639 | 2.22° C | 88% | 1009 hPa | 0 mm | - | 3 W/m² | - |
| 1777804340 | 2.78° C | 87% | 1009 hPa | 0 mm | - | 3 W/m² | - |
| 1777804039 | 2.22° C | 88% | 1009 hPa | 0 mm | - | 2 W/m² | - |
| 1777803741 | 1.67° C | 89% | 1009 hPa | 0 mm | - | 2 W/m² | - |
| 1777803441 | 1.67° C | 89% | 1009 hPa | 0 mm | - | 1 W/m² | - |
| 1777803141 | 1.67° C | 89% | 1009 hPa | 0 mm | - | 1 W/m² | - |
| 1777802839 | 1.67° C | 89% | 1009 hPa | 0 mm | - | 0 W/m² | - |
| 1777802542 | 1.67° C | 89% | 1009 hPa | 0 mm | - | 0 W/m² | - |
| 1777802240 | 1.67° C | 89% | 1010 hPa | 0 mm | - | 0 W/m² | - |
| 1777801939 | 1.67° C | 89% | 1010 hPa | 0 mm | - | 0 W/m² | - |
| 1777801639 | 1.67° C | 89% | 1010 hPa | 0 mm | - | 0 W/m² | - |
* Rain latest hour (hover to see other rain measurements)
** Current wind speed in m/s (hover to see current wind gust speed)